{"data":{"norad_id":87214,"intl_designator":"","name":"UNKNOWN","alt_names":[],"object_type":"UNKNOWN","status":"UNKNOWN","operator":null,"country":null,"launch_date":null,"launch_site_code":null,"launch_vehicle":null,"mission":null,"orbit_class":"UNKNOWN","rcs_meters":null,"size_class":null,"mass_kg":null,"dimensions":null,"purposes":[],"wikipedia_slug":null,"has_3d_model":false,"image_url":null,"decayed_at":null,"tle_current":{"epoch":"2026-09-09T00:55:43.462272Z","epoch_age_seconds":1004807,"freshness":"AGED","line1":"1 87214U          26252.03869748  .00001890  00000+0  16919-2 0  9999","line2":"2 87214 100.3230 282.3656 0067270 278.8428  80.5111 13.84847217637643","mean_motion":13.84847217,"eccentricity":0.006727,"inclination_deg":100.323,"raan_deg":282.3656,"arg_perigee_deg":278.8428,"mean_anomaly_deg":80.5111,"bstar":0.0016919,"rev_number":63764,"period_min":103.98258972708,"perigee_km":897.46996209896,"apogee_km":996.01891698657,"semimajor_km":7324.8814395428,"source":"CELESTRAK","updated_at":"2026-09-20T09:00:32.451830Z"}}}